Regional Weather Roundup
Issued by NWS Jackson, KY

Home | Current Version | Previous Version | Graphics & Text | Print | Product List | Glossary On
Versions: 1 2 3 4 5 6 7 8 9 10 11 12 13 14 15 16 17 18 19 20 21 22 23 24 25 26 27 28 29 30 31 32 33 34 35 36 37 38 39 40 41 42 43 44 45 46 47 48 49 50
000
ASUS43 KJKL 231710
RWRJKL

EAST KENTUCKY HOURLY WEATHER ROUNDUP
NATIONAL WEATHER SERVICE JACKSON KY
100 PM EDT THU OCT 23 2014

NOTE: "FAIR" INDICATES FEW OR NO CLOUDS BELOW 12,000 FEET WITH
NO SIGNIFICANT WEATHER AND/OR OBSTRUCTIONS TO VISIBILITY.

* THESE REPORTS ARE NOT UNDER NWS QUALITY CONTROL AND MAY NOT
  REPORT WEATHER SUCH AS PRECIPITATION AND FOG.

KYZ079-080-083-085-087-088-110-112-115-119-120-231800
...EASTERN KENTUCKY...

CITY           SKY/WX    TMP DP  RH WIND       PRES   REMARKS
JACKSON        MOSUNNY   53  38  56 CALM      30.21F
LONDON         SUNNY     57  39  51 E10       30.20F
SOMERSET*      SUNNY     55  41  58 NE6       30.22F
MONTICELLO*    SUNNY     57  42  57 NE5       30.22F
WILLIAMSBURG*  SUNNY     55  41  58 CALM      30.19F
MIDDLESBORO*   SUNNY     56  40  53 CALM      30.19F
HARLAN APT*    SUNNY     57  37  47 E6        30.18F
HAZARD APT*    CLOUDY    54  41  62 CALM      30.22F
BLACK MTN*       N/A     45  45 100 N3          N/A
PIKEVILLE APT* CLOUDY    50  41  71 CALM      30.21F
BIG SANDY*     CLOUDY    55  42  62 E5        30.21F
MOREHEAD APT*  PTSUNNY   55  41  58 VRB7      30.24F
$$

KYZ035-036-041-042-044-050-067-078-099-231800
...CENTRAL KENTUCKY...

CITY           SKY/WX    TMP DP  RH WIND       PRES   REMARKS
MT STERLING*   SUNNY     54  41  62 NE7       30.23F
FLEMING/MASON* MOSUNNY   55  41  58 CALM      30.23F
DANVILLE*      SUNNY     54  39  58 SE6       30.22F
RICHMOND*      SUNNY     55  41  58 E5        30.21F
LEXINGTON      SUNNY     59  41  51 VRB3      30.21F
FRANKFORT      SUNNY     57  41  55 VRB6      30.21F
$$

KYZ091>093-OHZ055-061-077-WVZ005-015-034-035-042-231800
...SOUTHERN OHIO/WEST VIRGINIA...

CITY           SKY/WX    TMP DP  RH WIND       PRES   REMARKS
COVINGTON      MOSUNNY   56  40  55 CALM      30.23F
COLUMBUS       MOSUNNY   54  42  64 VRB7      30.21F
DAYTON         MOSUNNY   56  40  55 CALM      30.24F
WILMINGTON     MOSUNNY   54  39  57 CALM      30.22F
HUNTINGTON     MOSUNNY   56  43  61 VRB5      30.21F
CHARLESTON     PTSUNNY   55  43  63 VRB3      30.19F
PINEVILLE*     CLOUDY    52  45  77 MISG      30.23F
BECKLEY        CLOUDY    49  40  71 NW9       30.15F
BLUEFIELD      CLOUDY    46  38  73 VRB7      30.16F
$$

VAZ002-007-008-TNZ017-027-036-066-071-231800
...SOUTHWEST VIRGINIA/EAST TENNESSEE...

CITY           SKY/WX    TMP DP  RH WIND       PRES   REMARKS
WISE*          CLOUDY    48  36  61 N7        30.21S
JONESVILLE*    SUNNY     55  37  50 NE3       30.21F
ABINGDON*      CLOUDY    52  39  63 NE3       30.18F
BRISTOL        PTSUNNY   52  39  61 N7        30.20F
KNOXVILLE      MOSUNNY   58  42  55 NE12      30.16F
OAK RIDGE      SUNNY     58  41  53 VRB5      30.20F
CROSSVILLE     SUNNY     57  39  51 VRB3      30.18F
NASHVILLE      MOSUNNY   58  42  55 E7        30.21F
$$

...KEY TO REMARKS...
VSB - VISIBILITY IN MILES
WCI - WIND CHILL INDEX
HX  - HEAT INDEX

$$



USA.gov is the U.S. government's official web portal to all federal, state and local government web resources and services.